Time,TemperatureF,DewpointF,PressureIn,WindDirection,WindDirectionDegrees,WindSpeedMPH,WindSpeedGustMPH,Humidity,HourlyPrecipIn,Conditions,Clouds,dailyrainin,SoftwareType,DateUTC
2013-05-12 00:08:00,52.3,50.0,30.01,NNW,340,0.0,0.0,91,0.00,,,0.00,weatherlink.com 1.10,2013-05-12 07:08:00,
2013-05-12 00:23:00,51.6,49.0,30.02,NNW,340,0.0,0.0,91,0.00,,,0.00,weatherlink.com 1.10,2013-05-12 07:23:00,
2013-05-12 00:38:00,51.2,49.0,30.02,NNW,340,0.0,0.0,92,0.00,,,0.00,weatherlink.com 1.10,2013-05-12 07:38:00,
2013-05-12 00:53:00,50.4,49.0,30.02,NNW,340,0.0,0.0,93,0.00,,,0.00,weatherlink.com 1.10,2013-05-12 07:53:00,
2013-05-12 01:08:00,49.9,48.0,30.02,WSW,241,0.0,1.0,92,0.00,,,0.00,weatherlink.com 1.10,2013-05-12 08:08:00,
2013-05-12 01:23:00,51.2,48.0,30.02,WSW,253,0.0,2.0,90,0.00,,,0.00,weatherlink.com 1.10,2013-05-12 08:23:00,
2013-05-12 01:38:00,51.1,49.0,30.01,WSW,252,0.0,0.0,92,0.00,,,0.00,weatherlink.com 1.10,2013-05-12 08:38:00,
2013-05-12 01:53:00,51.4,49.0,30.01,WSW,253,0.0,0.0,91,0.00,,,0.00,weatherlink.com 1.10,2013-05-12 08:53:00,
2013-05-12 02:08:00,51.4,49.0,30.00,WSW,252,0.0,1.0,91,0.00,,,0.00,weatherlink.com 1.10,2013-05-12 09:08:00,
2013-05-12 02:23:00,56.9,50.0,30.00,ENE,72,4.0,4.0,79,0.00,,,0.00,weatherlink.com 1.10,2013-05-12 09:23:00,
2013-05-12 02:38:00,58.2,51.0,30.00,ENE,69,4.0,7.0,76,0.00,,,0.00,weatherlink.com 1.10,2013-05-12 09:38:00,
2013-05-12 02:53:00,57.7,50.0,30.00,ENE,69,2.0,5.0,76,0.00,,,0.00,weatherlink.com 1.10,2013-05-12 09:53:00,
2013-05-12 03:08:00,56.6,50.0,30.00,ENE,70,2.0,4.0,78,0.00,,,0.00,weatherlink.com 1.10,2013-05-12 10:08:00,
2013-05-12 03:23:00,56.5,49.0,30.00,ENE,69,2.0,5.0,77,0.00,,,0.00,weatherlink.com 1.10,2013-05-12 10:23:00,
2013-05-12 03:38:00,56.7,49.0,30.01,ENE,74,5.0,6.0,76,0.00,,,0.00,weatherlink.com 1.10,2013-05-12 10:38:00,
2013-05-12 03:53:00,56.1,49.0,30.00,NE,46,3.0,5.0,77,0.00,,,0.00,weatherlink.com 1.10,2013-05-12 10:53:00,
2013-05-12 04:08:00,56.3,49.0,30.00,NE,49,1.0,5.0,76,0.00,,,0.00,weatherlink.com 1.10,2013-05-12 11:08:00,
2013-05-12 04:23:00,55.3,49.0,30.00,ENE,65,4.0,4.0,78,0.00,,,0.00,weatherlink.com 1.10,2013-05-12 11:23:00,
2013-05-12 04:38:00,55.3,49.0,30.00,ENE,70,3.0,4.0,79,0.00,,,0.00,weatherlink.com 1.10,2013-05-12 11:38:00,
2013-05-12 04:53:00,56.9,49.0,29.99,NE,56,1.0,4.0,75,0.00,,,0.00,weatherlink.com 1.10,2013-05-12 11:53:00,
2013-05-12 05:08:00,56.1,49.0,29.99,East,89,2.0,7.0,76,0.00,,,0.00,weatherlink.com 1.10,2013-05-12 12:08:00,
2013-05-12 05:23:00,56.3,49.0,29.99,ENE,62,3.0,7.0,76,0.00,,,0.00,weatherlink.com 1.10,2013-05-12 12:23:00,
2013-05-12 05:38:00,55.9,49.0,29.99,ESE,118,1.0,5.0,77,0.00,,,0.00,weatherlink.com 1.10,2013-05-12 12:38:00,
2013-05-12 05:53:00,56.6,49.0,29.99,East,87,0.0,5.0,76,0.00,,,0.00,weatherlink.com 1.10,2013-05-12 12:53:00,
2013-05-12 06:08:00,56.4,49.0,29.99,East,84,2.0,4.0,77,0.00,,,0.00,weatherlink.com 1.10,2013-05-12 13:08:00,
2013-05-12 06:23:00,57.3,49.0,29.99,East,97,2.0,6.0,75,0.00,,,0.00,weatherlink.com 1.10,2013-05-12 13:23:00,
2013-05-12 06:38:00,58.2,50.0,29.99,ESE,104,3.0,7.0,75,0.00,,,0.00,weatherlink.com 1.10,2013-05-12 13:38:00,
2013-05-12 06:53:00,59.2,50.0,29.99,ENE,76,3.0,7.0,71,0.00,,,0.00,weatherlink.com 1.10,2013-05-12 13:53:00,
2013-05-12 07:08:00,59.6,50.0,29.99,East,82,2.0,6.0,71,0.00,,,0.00,weatherlink.com 1.10,2013-05-12 14:08:00,
2013-05-12 07:24:00,59.5,50.0,30.00,NE,56,4.0,6.0,70,0.00,,,0.00,weatherlink.com 1.10,2013-05-12 14:24:00,
2013-05-12 07:39:00,60.0,51.0,30.00,East,87,5.0,7.0,72,0.00,,,0.00,weatherlink.com 1.10,2013-05-12 14:39:00,
2013-05-12 07:54:00,60.8,51.0,29.99,East,81,4.0,7.0,69,0.00,,,0.00,weatherlink.com 1.10,2013-05-12 14:54:00,
2013-05-12 08:09:00,61.4,51.0,29.99,NE,55,5.0,6.0,68,0.00,,,0.00,weatherlink.com 1.10,2013-05-12 15:09:00,
2013-05-12 08:24:00,62.1,51.0,29.99,East,90,4.0,9.0,66,0.00,,,0.00,weatherlink.com 1.10,2013-05-12 15:24:00,
2013-05-12 08:39:00,61.9,51.0,29.99,NE,51,2.0,7.0,68,0.00,,,0.00,weatherlink.com 1.10,2013-05-12 15:39:00,
2013-05-12 08:54:00,63.3,50.0,29.99,ENE,72,3.0,7.0,63,0.00,,,0.00,weatherlink.com 1.10,2013-05-12 15:54:00,
2013-05-12 09:09:00,64.7,51.0,29.99,ENE,65,2.0,9.0,62,0.00,,,0.00,weatherlink.com 1.10,2013-05-12 16:09:00,
2013-05-12 09:24:00,66.0,51.0,29.99,NE,42,5.0,7.0,58,0.00,,,0.00,weatherlink.com 1.10,2013-05-12 16:24:00,
2013-05-12 09:39:00,67.2,53.0,29.99,East,89,3.0,5.0,60,0.00,,,0.00,weatherlink.com 1.10,2013-05-12 16:39:00,
2013-05-12 09:54:00,68.3,53.0,29.99,NE,37,4.0,6.0,58,0.00,,,0.00,weatherlink.com 1.10,2013-05-12 16:54:00,
2013-05-12 10:09:00,68.4,53.0,29.98,NE,36,3.0,5.0,58,0.00,,,0.00,weatherlink.com 1.10,2013-05-12 17:09:00,
2013-05-12 10:24:00,69.6,52.0,29.98,SE,146,2.0,4.0,53,0.00,,,0.00,weatherlink.com 1.10,2013-05-12 17:24:00,
2013-05-12 10:39:00,71.6,52.0,29.98,NE,36,1.0,3.0,50,0.00,,,0.00,weatherlink.com 1.10,2013-05-12 17:39:00,
2013-05-12 10:54:00,72.6,52.0,29.98,NE,52,2.0,3.0,49,0.00,,,0.00,weatherlink.com 1.10,2013-05-12 17:54:00,
2013-05-12 11:09:00,73.3,52.0,29.98,West,269,8.0,13.0,48,0.00,,,0.00,weatherlink.com 1.10,2013-05-12 18:09:00,
2013-05-12 11:24:00,73.1,53.0,29.98,West,276,6.0,13.0,49,0.00,,,0.00,weatherlink.com 1.10,2013-05-12 18:24:00,
2013-05-12 11:39:00,72.5,54.0,29.98,West,259,11.0,15.0,53,0.00,,,0.00,weatherlink.com 1.10,2013-05-12 18:39:00,
2013-05-12 11:54:00,72.9,54.0,29.98,WNW,288,8.0,16.0,52,0.00,,,0.00,weatherlink.com 1.10,2013-05-12 18:54:00,
2013-05-12 12:09:00,72.7,53.0,29.99,NW,316,11.0,17.0,51,0.00,,,0.00,weatherlink.com 1.10,2013-05-12 19:09:00,
2013-05-12 12:24:00,72.8,54.0,29.98,WNW,285,7.0,13.0,52,0.00,,,0.00,weatherlink.com 1.10,2013-05-12 19:24:00,
2013-05-12 12:39:00,73.1,53.0,29.98,WNW,299,8.0,20.0,50,0.00,,,0.00,weatherlink.com 1.10,2013-05-12 19:39:00,
2013-05-12 12:54:00,72.7,51.0,29.98,WNW,294,6.0,14.0,47,0.00,,,0.00,weatherlink.com 1.10,2013-05-12 19:54:00,
2013-05-12 13:09:00,73.2,52.0,29.98,WSW,257,9.0,16.0,47,0.00,,,0.00,weatherlink.com 1.10,2013-05-12 20:09:00,
2013-05-12 13:24:00,74.3,51.0,29.98,WNW,298,10.0,13.0,44,0.00,,,0.00,weatherlink.com 1.10,2013-05-12 20:24:00,
2013-05-12 13:39:00,74.1,49.0,29.98,WNW,296,7.0,15.0,42,0.00,,,0.00,weatherlink.com 1.10,2013-05-12 20:39:00,
2013-05-12 13:54:00,74.3,49.0,29.98,NW,304,11.0,16.0,41,0.00,,,0.00,weatherlink.com 1.10,2013-05-12 20:54:00,
2013-05-12 14:10:00,75.0,50.0,29.98,WNW,297,8.0,11.0,41,0.00,,,0.00,weatherlink.com 1.10,2013-05-12 21:10:00,
2013-05-12 14:25:00,75.4,50.0,29.97,WNW,283,10.0,13.0,41,0.00,,,0.00,weatherlink.com 1.10,2013-05-12 21:25:00,
2013-05-12 14:40:00,75.4,52.0,29.97,NW,308,9.0,13.0,44,0.00,,,0.00,weatherlink.com 1.10,2013-05-12 21:40:00,
2013-05-12 14:55:00,75.6,52.0,29.96,West,269,5.0,11.0,44,0.00,,,0.00,weatherlink.com 1.10,2013-05-12 21:55:00,
2013-05-12 15:10:00,75.7,52.0,29.96,West,266,5.0,14.0,44,0.00,,,0.00,weatherlink.com 1.10,2013-05-12 22:10:00,
2013-05-12 15:25:00,75.9,50.0,29.95,WSW,250,10.0,14.0,41,0.00,,,0.00,weatherlink.com 1.10,2013-05-12 22:25:00,
2013-05-12 15:40:00,75.0,52.0,29.95,West,278,7.0,13.0,45,0.00,,,0.00,weatherlink.com 1.10,2013-05-12 22:40:00,
2013-05-12 15:55:00,75.8,53.0,29.95,West,274,7.0,13.0,46,0.00,,,0.00,weatherlink.com 1.10,2013-05-12 22:55:00,
2013-05-12 16:10:00,75.1,53.0,29.95,WNW,285,5.0,14.0,46,0.00,,,0.00,weatherlink.com 1.10,2013-05-12 23:10:00,
2013-05-12 16:25:00,74.7,52.0,29.95,NW,314,4.0,12.0,45,0.00,,,0.00,weatherlink.com 1.10,2013-05-12 23:25:00,
2013-05-12 16:40:00,74.0,53.0,29.95,NW,308,10.0,16.0,48,0.00,,,0.00,weatherlink.com 1.10,2013-05-12 23:40:00,
2013-05-12 16:55:00,73.6,54.0,29.95,WNW,291,9.0,17.0,51,0.00,,,0.00,weatherlink.com 1.10,2013-05-12 23:55:00,
2013-05-12 17:10:00,73.4,52.0,29.94,WNW,283,7.0,15.0,48,0.00,,,0.00,weatherlink.com 1.10,2013-05-13 00:10:00,
2013-05-12 17:25:00,73.6,53.0,29.94,NW,304,15.0,17.0,48,0.00,,,0.00,weatherlink.com 1.10,2013-05-13 00:25:00,
2013-05-12 17:40:00,72.9,52.0,29.93,NW,314,6.0,13.0,48,0.00,,,0.00,weatherlink.com 1.10,2013-05-13 00:40:00,
2013-05-12 17:55:00,72.9,53.0,29.92,NW,318,6.0,13.0,49,0.00,,,0.00,weatherlink.com 1.10,2013-05-13 00:55:00,
2013-05-12 18:10:00,72.4,51.0,29.91,WNW,299,7.0,14.0,48,0.00,,,0.00,weatherlink.com 1.10,2013-05-13 01:10:00,
2013-05-12 18:25:00,71.2,53.0,29.91,WNW,295,6.0,8.0,52,0.00,,,0.00,weatherlink.com 1.10,2013-05-13 01:25:00,
2013-05-12 18:40:00,71.7,53.0,29.91,NW,304,8.0,13.0,52,0.00,,,0.00,weatherlink.com 1.10,2013-05-13 01:40:00,
2013-05-12 18:55:00,70.7,53.0,29.91,NW,306,4.0,9.0,53,0.00,,,0.00,weatherlink.com 1.10,2013-05-13 01:55:00,
2013-05-12 19:10:00,70.1,52.0,29.91,WNW,296,4.0,9.0,52,0.00,,,0.00,weatherlink.com 1.10,2013-05-13 02:10:00,
2013-05-12 19:25:00,69.3,51.0,29.91,NNW,332,3.0,6.0,52,0.00,,,0.00,weatherlink.com 1.10,2013-05-13 02:25:00,
2013-05-12 19:40:00,68.1,52.0,29.91,WNW,299,0.0,2.0,56,0.00,,,0.00,weatherlink.com 1.10,2013-05-13 02:40:00,
2013-05-12 19:55:00,66.3,53.0,29.92,South,176,0.0,1.0,63,0.00,,,0.00,weatherlink.com 1.10,2013-05-13 02:55:00,
2013-05-12 20:10:00,64.1,52.0,29.92,South,176,0.0,0.0,66,0.00,,,0.00,weatherlink.com 1.10,2013-05-13 03:10:00,
2013-05-12 20:25:00,63.1,51.0,29.92,NNE,27,3.0,3.0,66,0.00,,,0.00,weatherlink.com 1.10,2013-05-13 03:25:00,
2013-05-12 20:40:00,61.4,52.0,29.93,NNE,20,3.0,4.0,70,0.00,,,0.00,weatherlink.com 1.10,2013-05-13 03:40:00,
2013-05-12 20:55:00,61.8,51.0,29.94,NW,323,1.0,2.0,68,0.00,,,0.00,weatherlink.com 1.10,2013-05-13 03:55:00,
2013-05-12 21:10:00,61.9,52.0,29.94,NW,309,3.0,4.0,69,0.00,,,0.00,weatherlink.com 1.10,2013-05-13 04:10:00,
2013-05-12 21:25:00,63.7,53.0,29.95,NW,309,3.0,5.0,69,0.00,,,0.00,weatherlink.com 1.10,2013-05-13 04:25:00,
2013-05-12 21:40:00,63.9,53.0,29.96,WNW,293,4.0,9.0,67,0.00,,,0.00,weatherlink.com 1.10,2013-05-13 04:40:00,
2013-05-12 21:55:00,63.7,49.0,29.96,NW,306,5.0,6.0,60,0.00,,,0.00,weatherlink.com 1.10,2013-05-13 04:55:00,
2013-05-12 22:10:00,63.1,47.0,29.96,WNW,297,5.0,8.0,57,0.00,,,0.00,weatherlink.com 1.10,2013-05-13 05:10:00,
2013-05-12 22:25:00,63.1,47.0,29.96,WNW,292,4.0,7.0,56,0.00,,,0.00,weatherlink.com 1.10,2013-05-13 05:25:00,
2013-05-12 22:40:00,63.5,47.0,29.96,NW,308,3.0,9.0,55,0.00,,,0.00,weatherlink.com 1.10,2013-05-13 05:40:00,
2013-05-12 22:55:00,62.5,46.0,29.96,NW,316,2.0,5.0,55,0.00,,,0.00,weatherlink.com 1.10,2013-05-13 05:55:00,
2013-05-12 23:10:00,61.3,46.0,29.97,WNW,300,3.0,4.0,57,0.00,,,0.00,weatherlink.com 1.10,2013-05-13 06:10:00,
2013-05-12 23:25:00,60.2,46.0,29.97,WNW,301,2.0,5.0,60,0.00,,,0.00,weatherlink.com 1.10,2013-05-13 06:25:00,
2013-05-12 23:40:00,60.5,47.0,29.96,West,273,1.0,3.0,61,0.00,,,0.00,weatherlink.com 1.10,2013-05-13 06:40:00,
2013-05-12 23:55:00,62.5,46.0,29.97,West,280,2.0,6.0,56,0.00,,,0.00,weatherlink.com 1.10,2013-05-13 06:55:00,